Location: Unspecified
(0.0000°N, 0.0000°E)
Time: 06:56:33
(UTC+00:00)

N. Korean satellite - Pass Details

Date: 13 October 2019
Orbit: 455 x 508 km, 97.2° (Epoch: 14 October)

Event Time Altitude Azimuth Distance (km) Brightness Sun altitude
Rises 04:49:41 0° 38° (NE) 2,556 10.7 -14.0°
Reaches altitude 10° 04:52:16 10° 59° (ENE) 1,688 10.1 -13.4°
Maximum altitude 04:54:44 17° 102° (ESE) 1,302 10.0 -12.8°
Drops below altitude 10° 04:57:14 10° 144° (SE) 1,710 10.0 -12.2°
Sets 04:59:51 0° 164° (SSE) 2,603 10.6 -11.5°
